| time (UTC) | temp F | wind direction | speed MPH | gust MPH | rain 1hr in | rain 24hr in | rain mn in | humidity % | barometer mb |
| 20260504081504 | 56 | 271 | 3.0 | 6.0 | 0.00 | 0.08 | 0.08 | 90 | 1004.2 |
| 20260504050003 | 47 | 307 | 0.0 | 3.0 | 0.06 | 0.08 | 0.08 | 96 | 1003.5 |
| 20260504044504 | 47 | 309 | 1.0 | 3.0 | 0.05 | 0.07 | 0.07 | 96 | 1003.4 |
| 20260504043004 | 47 | 317 | 0.0 | 3.0 | 0.00 | 0.02 | 0.02 | 96 | 1003.7 |
| 20260504041503 | 46 | 302 | 0.0 | 5.0 | 0.01 | 0.02 | 0.02 | 96 | 1003.6 |
| 20260504040004 | 46 | 307 | 3.0 | 5.0 | 0.01 | 0.02 | 0.02 | 96 | 1003.6 |
| 20260504034503 | 46 | 332 | 3.0 | 5.0 | 0.01 | 0.02 | 0.02 | 95 | 1003.6 |
| 20260504033004 | 46 | 346 | 0.0 | 0.0 | 0.02 | 0.02 | 0.02 | 95 | 1003.6 |
| 20260504031504 | 46 | 346 | 0.0 | 0.0 | 0.01 | 0.01 | 0.01 | 95 | 1003.7 |
| 20260504024504 | 46 | 345 | 0.0 | 3.0 | 0.01 | 0.01 | 0.01 | 95 | 1004.5 |
| 20260504023003 | 46 | 284 | 3.0 | 5.0 | 0.00 | 0.00 | 0.00 | 95 | 1005.3 |
| 20260504021504 | 46 | 289 | 0.0 | 3.0 | 0.00 | 0.00 | 0.00 | 95 | 1004.7 |
| 20260504020004 | 46 | 261 | 0.0 | 0.0 | 0.00 | 0.00 | 0.00 | 95 | 1004.7 |
| 20260504014503 | 46 | 261 | 0.0 | 0.0 | 0.00 | 0.00 | 0.00 | 95 | 1004.8 |
| 20260504011503 | 45 | 261 | 0.0 | 0.0 | 0.00 | 0.00 | 0.00 | 95 | 1005.6 |
| 20260504010004 | 45 | 261 | 0.0 | 0.0 | 0.00 | 0.00 | 0.00 | 95 | 1005.6 |
| 20260504003004 | 45 | 261 | 0.0 | 3.0 | 0.00 | 0.00 | 0.00 | 94 | 1006.0 |
| 20260504000004 | 45 | 8 | 3.0 | 6.0 | 0.00 | 0.00 | 0.00 | 95 | 1006.8 |
| 20260503233003 | 44 | 180 | 0.0 | 0.0 | 0.00 | 0.00 | 0.00 | 94 | 1006.8 |
| 20260503231504 | 44 | 180 | 0.0 | 6.0 | 0.00 | 0.00 | 0.00 | 95 | 1006.8 |
| 20260503230003 | 42 | 178 | 2.0 | 6.0 | 0.00 | 0.00 | 0.00 | 94 | 1006.8 |
| 20260503223004 | 42 | 41 | 0.0 | 0.0 | 0.00 | 0.00 | 0.00 | 93 | 1006.7 |
| 20260503221504 | 42 | 41 | 0.0 | 0.0 | 0.00 | 0.00 | 0.00 | 93 | 1006.7 |
| 20260503220004 | 43 | 41 | 0.0 | 0.0 | 0.00 | 0.00 | 0.00 | 92 | 1007.1 |
| 20260503214504 | 43 | 41 | 0.0 | 0.0 | 0.00 | 0.00 | 0.00 | 92 | 1007.2 |
| 20260503213004 | 43 | 41 | 0.0 | 0.0 | 0.00 | 0.00 | 0.00 | 91 | 1007.2 |
| 20260503210003 | 44 | 41 | 0.0 | 0.0 | 0.00 | 0.00 | 0.00 | 90 | 1007.6 |
| 20260503204504 | 45 | 41 | 0.0 | 0.0 | 0.00 | 0.00 | 0.00 | 88 | 1007.6 |
| 20260503201503 | 47 | 41 | 0.0 | 0.0 | 0.00 | 0.00 | 0.00 | 86 | 1007.7 |
| 20260503200004 | 48 | 41 | 0.0 | 0.0 | 0.00 | 0.00 | 0.00 | 86 | 1007.7 |
| 20260503194503 | 48 | 41 | 0.0 | 0.0 | 0.00 | 0.00 | 0.00 | 85 | 1007.9 |
| 20260503193004 | 49 | 41 | 0.0 | 0.0 | 0.00 | 0.00 | 0.00 | 84 | 1007.7 |
| 20260503191504 | 49 | 40 | 0.0 | 0.0 | 0.00 | 0.00 | 0.00 | 84 | 1007.7 |
| 20260503190004 | 49 | 40 | 0.0 | 0.0 | 0.00 | 0.00 | 0.00 | 84 | 1007.5 |
| 20260503184503 | 49 | 39 | 0.0 | 0.0 | 0.00 | 0.00 | 0.00 | 84 | 1007.5 |
| 20260503183004 | 50 | 39 | 0.0 | 0.0 | 0.00 | 0.00 | 0.00 | 82 | 1007.6 |
| 20260503181504 | 51 | 39 | 0.0 | 3.0 | 0.00 | 0.00 | 0.00 | 82 | 1007.4 |
| 20260503180004 | 51 | 39 | 0.0 | 3.0 | 0.00 | 0.00 | 0.00 | 82 | 1007.1 |
| 20260503174503 | 51 | 29 | 0.0 | 6.0 | 0.00 | 0.00 | 0.00 | 80 | 1007.0 |
| 20260503173005 | 52 | 38 | 2.0 | 6.0 | 0.00 | 0.00 | 0.00 | 80 | 1007.0 |
| 20260503171504 | 52 | 10 | 3.0 | 6.0 | 0.00 | 0.00 | 0.00 | 80 | 1007.0 |